OneWeb SL0592

operational
NORAD ID: 54658 Int'l Des: 2022-166 Owner: ONEWEBN Country: UK Constellation: oneweb
LEOCIRCULARPOLARONEWEB_TYPE

About OneWeb SL0592

Description loading...

Live Position

Loading 3D Globe...

Upcoming Passes

Altitude History

Altitude vs Time

uPlot chart will show altitude changes over time

Two-Line Element Set

1 54658U 22166S 25298.50199322 .00000116 00000-0 25043-3 0 9997
2 54658 87.9177 290.7723 0001806 84.9960 275.1380 13.21822955140436
Epoch: Oct 25, 2025 • Age: 13 hours

Current Status

Altitude 1186.7 km
Velocity 7.27 km/s
Sub-Earth Point 59.42°N, 116.45°W
Launch Date Dec 8, 2022
Age 2.8 years
Type internet

Technical Details

Classification Payload
Mass 148.00 kg
Dry Mass 140.00 kg
Total Mass 148.00 kg
Length 1.30 m
Diameter 1.00 m
Span 5.00 m
Shape Trapezoid+2 pan
Manufacturer ONEWUS
Bus Type ARROW
Phase Status In Orbit
Owner/State ONEWEBN/UK

Large Constellations

Loading constellations...